QPF
0.00 0.00 0.01 0.01 0.01 0.01 0.01 0.00 0.00 0.00 0.00 0.00 0.00 0.00 0.00 0.00 0.00 0.00 0.00 0.00 0.00 0.00 0.00 0.00 0.00 0.00 0.00 0.00 0.00 0.00 0.00 0.00 0.00 0.00 0.00 0.00 0.00 0.00 0.00 0.00 0.00 0.00 0.00 0.00 0.00 0.00 0.00 0.00 0.00
0.00 0.00 0.01 0.02 0.01 0.01 0.00 0.00 0.00 0.00 0.00 0.00 0.00 0.00 0.00 0.00 0.00 0.00 0.00 0.00 0.00 0.00 0.00 0.00 0.00 0.00 0.00 0.00 0.00 0.00 0.00 0.00 0.00 0.00 0.00 0.00 0.00 0.00 0.00 0.00 0.00 0.00 0.00 0.00 0.00 0.00 0.00 0.00 0.00
0.00 0.00 0.01 0.01 0.01 0.01 0.00 0.00 0.00 0.00 0.00 0.00 0.00 0.00 0.00 0.00 0.00 0.00 0.00 0.00 0.00 0.00 0.00 0.00 0.00 0.00 0.00 0.00 0.00 0.00 0.00 0.00 0.00 0.00 0.00 0.00 0.00 0.00 0.00 0.00 0.00 0.00 0.00 0.00 0.00 0.00 0.00 0.00 0.00
0.00 0.00 0.00 0.00 0.01 0.00 0.00 0.00 0.00 0.00 0.00 0.00 0.00 0.00 0.00 0.00 0.00 0.00 0.00 0.00 0.00 0.00 0.00 0.00 0.00 0.00 0.00 0.00 0.00 0.00 0.00 0.00 0.00 0.00 0.00 0.00 0.00 0.00 0.00 0.00 0.00 0.00 0.00 0.00 0.00 0.00 0.00 0.00 0.00
0.00 0.00 0.00 0.00 0.00 0.00 0.00 0.00 0.00 0.00 0.00 0.00 0.00 0.00 0.00 0.00 0.00 0.00 0.00 0.00 0.00 0.00 0.00 0.00 0.00 0.00 0.00 0.00 0.00 0.00 0.00 0.00 0.00 0.00 0.00 0.00 0.00 0.00 0.00 0.00 0.00 0.00 0.00 0.00 0.00 0.00 0.00 0.00 0.00
0.00 0.00 0.00 0.00 0.00 0.00 0.00 0.00 0.00 0.00 0.00 0.00 0.00 0.00 0.00 0.00 0.00 0.00 0.00 0.00 0.00 0.00 0.00 0.00 0.00 0.00 0.00 0.00 0.00 0.00 0.00 0.00 0.00 0.00 0.00 0.00 0.00 0.00 0.00 0.00 0.00 0.00 0.00 0.00 0.00 0.00 0.00 0.00 0.00
0.00 0.00 0.00 0.00 0.00 0.00 0.00 0.00 0.00 0.00 0.00 0.00 0.00 0.00 0.00 0.00 0.00 0.00 0.00 0.00 0.00 0.00 0.00 0.00 0.00 0.00 0.00 0.00 0.00 0.00 0.00 0.00 0.00 0.00 0.00 0.00 0.00 0.00 0.00 0.00 0.00 0.00 0.00 0.00 0.00 0.00 0.00 0.00 0.00
0.00 0.00 0.00 0.00 0.00 0.00 0.00 0.00 0.00 0.00 0.00 0.00 0.00 0.00 0.00 0.00 0.00 0.00 0.00 0.00 0.00 0.00 0.00 0.00 0.00 0.00 0.00 0.00 0.00 0.00 0.00 0.00 0.00 0.00 0.00 0.00 0.00 0.00 0.00 0.00 0.00 0.00 0.01 0.01 0.01 0.00 0.01 0.01 0.01
0.00 0.00 0.00 0.00 0.00 0.00 0.00 0.00 0.00 0.00 0.00 0.00 0.00 0.00 0.00 0.00 0.00 0.00 0.00 0.00 0.00 0.00 0.00 0.00 0.00 0.00 0.00 0.00 0.00 0.00 0.00 0.00 0.00 0.00 0.00 0.01 0.01 0.01 0.01 0.01 0.02 0.02 0.04 0.06 0.06 0.05 0.05 0.04 0.03
0.00 0.00 0.00 0.00 0.00 0.00 0.00 0.00 0.00 0.00 0.00 0.00 0.00 0.00 0.00 0.00 0.00 0.01 0.01 0.01 0.01 0.01 0.00 0.00 0.00 0.00 0.00 0.00 0.00 0.00 0.00 0.00 0.00 0.00 0.00 0.01 0.01 0.01 0.01 0.02 0.05 0.09 0.12 0.13 0.12 0.10 0.09 0.07 0.04
0.00 0.00 0.00 0.00 0.00 0.00 0.00 0.00 0.00 0.00 0.00 0.00 0.00 0.00 0.00 0.00 0.00 0.00 0.00 0.02 0.07 0.05 0.01 0.01 0.00 0.00 0.00 0.00 0.00 0.00 0.00 0.01 0.01 0.01 0.01 0.02 0.02 0.02 0.03 0.04 0.04 0.07 0.12 0.12 0.14 0.15 0.13 0.11 0.07
0.00 0.00 0.00 0.00 0.00 0.00 0.00 0.00 0.00 0.00 0.00 0.00 0.00 0.00 0.00 0.00 0.00 0.00 0.00 0.03 0.08 0.04 0.02 0.01 0.01 0.01 0.01 0.01 0.01 0.02 0.02 0.02 0.02 0.03 0.03 0.04 0.05 0.05 0.04 0.04 0.05 0.05 0.07 0.08 0.10 0.11 0.13 0.12 0.11
0.00 0.00 0.00 0.00 0.00 0.00 0.00 0.00 0.00 0.00 0.00 0.00 0.00 0.00 0.00 0.00 0.00 0.00 0.01 0.01 0.01 0.02 0.03 0.03 0.02 0.02 0.03 0.03 0.04 0.04 0.05 0.05 0.04 0.05 0.07 0.09 0.07 0.06 0.06 0.06 0.06 0.05 0.06 0.07 0.08 0.11 0.13 0.15 0.13
0.00 0.00 0.00 0.00 0.00 0.00 0.00 0.00 0.00 0.00 0.00 0.00 0.00 0.00 0.00 0.00 0.00 0.01 0.01 0.02 0.02 0.04 0.06 0.07 0.08 0.10 0.11 0.11 0.09 0.08 0.09 0.09 0.09 0.12 0.11 0.08 0.07 0.06 0.07 0.07 0.06 0.05 0.05 0.05 0.05 0.08 0.08 0.08 0.09
0.00 0.00 0.00 0.00 0.00 0.00 0.00 0.00 0.00 0.00 0.00 0.00 0.00 0.00 0.00 0.01 0.01 0.02 0.03 0.03 0.04 0.06 0.11 0.15 0.20 0.25 0.25 0.25 0.23 0.22 0.21 0.17 0.17 0.16 0.12 0.11 0.10 0.08 0.07 0.07 0.06 0.05 0.04 0.04 0.05 0.06 0.06 0.06 0.06
0.00 0.00 0.00 0.00 0.00 0.00 0.00 0.00 0.00 0.00 0.00 0.00 0.00 0.01 0.01 0.02 0.04 0.05 0.06 0.07 0.10 0.13 0.17 0.22 0.30 0.36 0.39 0.43 0.44 0.40 0.34 0.27 0.25 0.22 0.17 0.14 0.12 0.10 0.10 0.07 0.06 0.05 0.06 0.06 0.06 0.07 0.05 0.05 0.04
0.00 0.00 0.00 0.00 0.00 0.00 0.00 0.00 0.00 0.00 0.00 0.00 0.00 0.01 0.02 0.06 0.07 0.07 0.08 0.11 0.16 0.21 0.23 0.30 0.42 0.53 0.56 0.61 0.67 0.62 0.51 0.41 0.37 0.30 0.24 0.18 0.15 0.13 0.10 0.08 0.08 0.08 0.09 0.08 0.08 0.06 0.04 0.03 0.04
0.00 0.00 0.00 0.00 0.00 0.00 0.00 0.00 0.00 0.00 0.00 0.01 0.01 0.02 0.03 0.05 0.07 0.08 0.11 0.16 0.22 0.27 0.37 0.47 0.56 0.63 0.72 0.74 0.78 0.69 0.55 0.45 0.41 0.38 0.32 0.22 0.16 0.14 0.12 0.11 0.11 0.11 0.11 0.08 0.06 0.05 0.03 0.02 0.03
0.00 0.00 0.00 0.00 0.00 0.00 0.00 0.00 0.00 0.00 0.01 0.01 0.02 0.02 0.05 0.06 0.08 0.12 0.14 0.16 0.20 0.30 0.46 0.57 0.56 0.65 0.73 0.70 0.67 0.59 0.48 0.40 0.36 0.35 0.26 0.19 0.16 0.14 0.13 0.15 0.16 0.14 0.11 0.07 0.05 0.03 0.02 0.02 0.03
0.00 0.00 0.00 0.00 0.00 0.00 0.00 0.00 0.00 0.01 0.01 0.01 0.02 0.04 0.06 0.08 0.09 0.11 0.12 0.13 0.17 0.27 0.40 0.48 0.50 0.56 0.64 0.65 0.62 0.53 0.42 0.33 0.27 0.26 0.24 0.21 0.17 0.14 0.15 0.17 0.18 0.15 0.10 0.06 0.04 0.03 0.03 0.03 0.02
0.00 0.00 0.00 0.00 0.00 0.00 0.00 0.00 0.00 0.01 0.01 0.02 0.03 0.05 0.07 0.08 0.09 0.10 0.09 0.10 0.13 0.15 0.18 0.22 0.26 0.33 0.37 0.43 0.40 0.35 0.32 0.28 0.25 0.23 0.19 0.16 0.15 0.14 0.13 0.14 0.15 0.12 0.08 0.05 0.04 0.03 0.02 0.02 0.02
0.00 0.00 0.00 0.00 0.00 0.00 0.00 0.00 0.01 0.01 0.02 0.03 0.04 0.07 0.08 0.08 0.08 0.09 0.09 0.08 0.09 0.10 0.11 0.12 0.13 0.17 0.18 0.22 0.27 0.30 0.28 0.25 0.23 0.20 0.17 0.16 0.16 0.15 0.14 0.14 0.13 0.12 0.06 0.04 0.03 0.02 0.02 0.02 0.01
0.00 0.00 0.00 0.00 0.00 0.00 0.00 0.00 0.01 0.02 0.03 0.03 0.04 0.05 0.07 0.08 0.08 0.08 0.08 0.07 0.08 0.09 0.10 0.11 0.12 0.12 0.14 0.16 0.18 0.21 0.23 0.21 0.19 0.18 0.16 0.16 0.16 0.16 0.13 0.12 0.10 0.08 0.05 0.03 0.02 0.02 0.01 0.01 0.01
0.00 0.00 0.00 0.00 0.00 0.00 0.01 0.00 0.01 0.02 0.03 0.03 0.04 0.04 0.05 0.06 0.07 0.06 0.06 0.06 0.06 0.06 0.07 0.09 0.13 0.15 0.16 0.15 0.15 0.14 0.14 0.16 0.19 0.19 0.17 0.14 0.14 0.14 0.13 0.13 0.12 0.09 0.07 0.05 0.04 0.03 0.02 0.01 0.01
0.00 0.00 0.00 0.00 0.00 0.00 0.01 0.01 0.01 0.01 0.02 0.02 0.03 0.03 0.03 0.03 0.05 0.05 0.05 0.04 0.04 0.04 0.04 0.03 0.05 0.08 0.08 0.09 0.07 0.06 0.07 0.09 0.09 0.10 0.10 0.11 0.11 0.11 0.11 0.11 0.11 0.10 0.10 0.10 0.07 0.05 0.03 0.02 0.01
0.01 0.02 0.01 0.01 0.00 0.01 0.01 0.01 0.01 0.02 0.02 0.02 0.02 0.03 0.03 0.04 0.04 0.02 0.02 0.02 0.01 0.01 0.01 0.01 0.01 0.02 0.02 0.02 0.02 0.02 0.03 0.03 0.03 0.04 0.05 0.07 0.08 0.08 0.08 0.08 0.08 0.08 0.08 0.08 0.08 0.07 0.05 0.04 0.03
0.01 0.02 0.02 0.02 0.01 0.01 0.01 0.02 0.02 0.01 0.02 0.02 0.02 0.02 0.03 0.03 0.02 0.01 0.01 0.00 0.00 0.00 0.00 0.00 0.00 0.00 0.00 0.01 0.01 0.01 0.01 0.01 0.01 0.01 0.01 0.02 0.02 0.03 0.04 0.05 0.06 0.06 0.06 0.07 0.07 0.07 0.06 0.05 0.04
0.01 0.02 0.02 0.02 0.02 0.01 0.01 0.04 0.05 0.04 0.04 0.02 0.02 0.01 0.01 0.01 0.01 0.01 0.00 0.00 0.00 0.00 0.00 0.00 0.00 0.00 0.00 0.00 0.00 0.00 0.00 0.00 0.00 0.00 0.00 0.00 0.00 0.01 0.02 0.03 0.03 0.04 0.05 0.06 0.06 0.06 0.06 0.05 0.03
0.01 0.01 0.02 0.02 0.02 0.02 0.02 0.03 0.05 0.04 0.03 0.02 0.01 0.01 0.00 0.00 0.00 0.00 0.00 0.00 0.00 0.00 0.00 0.00 0.00 0.00 0.00 0.00 0.00 0.00 0.00 0.00 0.00 0.00 0.00 0.00 0.00 0.00 0.01 0.01 0.02 0.03 0.05 0.06 0.06 0.06 0.06 0.06 0.04
0.01 0.02 0.02 0.02 0.02 0.03 0.02 0.03 0.03 0.02 0.01 0.01 0.00 0.00 0.00 0.00 0.00 0.00 0.00 0.00 0.00 0.00 0.00 0.00 0.00 0.00 0.00 0.00 0.00 0.00 0.00 0.00 0.00 0.00 0.00 0.00 0.00 0.00 0.00 0.00 0.01 0.01 0.02 0.04 0.06 0.07 0.07 0.06 0.06
MSLP
1010.63 1011.73 1012.76 1013.54 1013.94 1013.87 1013.35 1012.49 1011.43 1010.38 1009.50 1008.92 1008.65 1008.67 1008.85 1009.07 1009.20 1009.17 1008.96 1008.64 1008.31 1008.08 1008.05 1008.26 1008.70 1009.30 1009.95 1010.57 1011.08 1011.43 1011.65 1011.79 1011.92 1012.09 1012.34 1012.67 1013.06 1013.45 1013.78 1014.03 1014.19 1014.26 1014.28 1014.29 1014.33 1014.42 1014.54 1014.69 1014.82
1011.05 1012.18 1013.16 1013.79 1013.97 1013.63 1012.84 1011.71 1010.44 1009.25 1008.29 1007.69 1007.45 1007.52 1007.77 1008.06 1008.27 1008.32 1008.21 1008.00 1007.80 1007.70 1007.79 1008.12 1008.65 1009.33 1010.04 1010.69 1011.22 1011.60 1011.84 1012.01 1012.17 1012.36 1012.63 1012.95 1013.31 1013.66 1013.94 1014.14 1014.24 1014.28 1014.29 1014.32 1014.39 1014.52 1014.68 1014.85 1015.01
1011.52 1012.64 1013.52 1013.98 1013.93 1013.35 1012.33 1011.02 1009.63 1008.36 1007.40 1006.82 1006.63 1006.75 1007.05 1007.39 1007.64 1007.75 1007.70 1007.58 1007.48 1007.49 1007.70 1008.12 1008.73 1009.45 1010.19 1010.85 1011.37 1011.75 1012.00 1012.18 1012.34 1012.55 1012.81 1013.12 1013.44 1013.73 1013.96 1014.10 1014.17 1014.19 1014.21 1014.26 1014.38 1014.54 1014.75 1014.97 1015.15
1012.04 1013.09 1013.83 1014.11 1013.85 1013.08 1011.90 1010.49 1009.05 1007.81 1006.89 1006.38 1006.25 1006.42 1006.75 1007.10 1007.36 1007.48 1007.48 1007.41 1007.39 1007.49 1007.78 1008.27 1008.93 1009.66 1010.39 1011.02 1011.51 1011.86 1012.09 1012.26 1012.42 1012.62 1012.87 1013.16 1013.44 1013.69 1013.87 1013.97 1014.02 1014.04 1014.07 1014.16 1014.32 1014.54 1014.79 1015.04 1015.26
1012.54 1013.49 1014.07 1014.16 1013.73 1012.81 1011.55 1010.11 1008.72 1007.55 1006.73 1006.31 1006.25 1006.46 1006.79 1007.13 1007.38 1007.49 1007.50 1007.48 1007.51 1007.67 1008.02 1008.54 1009.20 1009.91 1010.59 1011.16 1011.60 1011.89 1012.09 1012.23 1012.38 1012.58 1012.82 1013.09 1013.35 1013.57 1013.72 1013.80 1013.84 1013.86 1013.92 1014.05 1014.25 1014.51 1014.81 1015.09 1015.33
1012.94 1013.76 1014.16 1014.08 1013.51 1012.50 1011.21 1009.82 1008.51 1007.47 1006.77 1006.46 1006.47 1006.70 1007.03 1007.34 1007.56 1007.66 1007.68 1007.69 1007.76 1007.96 1008.34 1008.86 1009.49 1010.15 1010.75 1011.24 1011.59 1011.83 1011.98 1012.11 1012.26 1012.45 1012.69 1012.96 1013.21 1013.42 1013.56 1013.63 1013.67 1013.71 1013.80 1013.95 1014.19 1014.48 1014.79 1015.09 1015.33
1013.15 1013.81 1014.04 1013.81 1013.12 1012.07 1010.80 1009.49 1008.31 1007.40 1006.84 1006.62 1006.69 1006.94 1007.26 1007.55 1007.75 1007.85 1007.89 1007.93 1008.04 1008.28 1008.66 1009.16 1009.74 1010.31 1010.81 1011.21 1011.49 1011.67 1011.79 1011.91 1012.07 1012.29 1012.55 1012.83 1013.08 1013.29 1013.42 1013.50 1013.54 1013.60 1013.70 1013.87 1014.11 1014.41 1014.72 1015.01 1015.25
1013.12 1013.60 1013.67 1013.30 1012.52 1011.46 1010.24 1009.03 1007.99 1007.22 1006.77 1006.64 1006.75 1007.01 1007.33 1007.61 1007.82 1007.94 1008.01 1008.10 1008.26 1008.53 1008.91 1009.38 1009.88 1010.37 1010.78 1011.09 1011.30 1011.44 1011.56 1011.69 1011.88 1012.13 1012.42 1012.71 1012.98 1013.19 1013.32 1013.39 1013.43 1013.49 1013.59 1013.76 1014.00 1014.28 1014.57 1014.84 1015.05
1012.82 1013.14 1013.05 1012.56 1011.74 1010.68 1009.53 1008.43 1007.51 1006.86 1006.51 1006.44 1006.58 1006.85 1007.17 1007.46 1007.69 1007.87 1008.01 1008.16 1008.38 1008.67 1009.05 1009.48 1009.92 1010.32 1010.65 1010.89 1011.06 1011.19 1011.32 1011.49 1011.71 1012.00 1012.31 1012.63 1012.90 1013.10 1013.23 1013.29 1013.31 1013.36 1013.44 1013.59 1013.80 1014.06 1014.32 1014.56 1014.74
1012.32 1012.48 1012.26 1011.69 1010.84 1009.82 1008.75 1007.76 1006.95 1006.39 1006.11 1006.07 1006.23 1006.50 1006.83 1007.14 1007.42 1007.65 1007.88 1008.11 1008.38 1008.71 1009.08 1009.47 1009.85 1010.18 1010.45 1010.65 1010.80 1010.94 1011.10 1011.31 1011.58 1011.90 1012.23 1012.55 1012.81 1012.99 1013.10 1013.13 1013.14 1013.16 1013.22 1013.34 1013.52 1013.74 1013.97 1014.17 1014.33
1011.74 1011.76 1011.44 1010.83 1009.98 1009.02 1008.04 1007.15 1006.44 1005.96 1005.71 1005.69 1005.83 1006.10 1006.42 1006.76 1007.08 1007.39 1007.69 1007.99 1008.32 1008.67 1009.02 1009.38 1009.70 1009.98 1010.21 1010.39 1010.55 1010.72 1010.92 1011.17 1011.47 1011.81 1012.14 1012.44 1012.67 1012.82 1012.89 1012.89 1012.88 1012.87 1012.91 1013.00 1013.15 1013.34 1013.54 1013.72 1013.86
1011.20 1011.12 1010.74 1010.12 1009.32 1008.45 1007.58 1006.80 1006.17 1005.74 1005.52 1005.48 1005.60 1005.83 1006.14 1006.48 1006.84 1007.19 1007.55 1007.90 1008.25 1008.59 1008.93 1009.24 1009.52 1009.76 1009.97 1010.15 1010.33 1010.53 1010.77 1011.05 1011.36 1011.68 1011.99 1012.25 1012.44 1012.54 1012.58 1012.56 1012.52 1012.50 1012.53 1012.61 1012.74 1012.90 1013.08 1013.25 1013.38
1010.84 1010.69 1010.30 1009.71 1009.00 1008.24 1007.50 1006.84 1006.30 1005.92 1005.70 1005.63 1005.70 1005.88 1006.14 1006.46 1006.81 1007.18 1007.54 1007.89 1008.23 1008.55 1008.84 1009.11 1009.34 1009.55 1009.74 1009.94 1010.14 1010.37 1010.63 1010.91 1011.21 1011.50 1011.75 1011.95 1012.09 1012.15 1012.16 1012.14 1012.11 1012.10 1012.13 1012.21 1012.34 1012.50 1012.67 1012.82 1012.95
1010.74 1010.56 1010.19 1009.68 1009.10 1008.49 1007.90 1007.38 1006.93 1006.59 1006.36 1006.25 1006.25 1006.36 1006.55 1006.80 1007.10 1007.42 1007.74 1008.04 1008.33 1008.58 1008.80 1009.00 1009.19 1009.37 1009.56 1009.76 1009.99 1010.23 1010.49 1010.75 1011.01 1011.23 1011.42 1011.55 1011.63 1011.67 1011.68 1011.67 1011.68 1011.71 1011.78 1011.89 1012.02 1012.18 1012.34 1012.50 1012.62
1010.89 1010.70 1010.39 1009.99 1009.57 1009.14 1008.73 1008.35 1008.00 1007.71 1007.48 1007.31 1007.23 1007.24 1007.33 1007.48 1007.69 1007.91 1008.14 1008.35 1008.54 1008.69 1008.82 1008.95 1009.08 1009.24 1009.42 1009.63 1009.86 1010.10 1010.34 1010.56 1010.74 1010.88 1010.99 1011.05 1011.10 1011.13 1011.16 1011.22 1011.29 1011.40 1011.53 1011.68 1011.84 1012.00 1012.16 1012.29 1012.41
1011.19 1011.03 1010.80 1010.55 1010.30 1010.07 1009.85 1009.62 1009.38 1009.13 1008.89 1008.67 1008.51 1008.41 1008.38 1008.41 1008.50 1008.61 1008.71 1008.80 1008.86 1008.90 1008.93 1008.98 1009.05 1009.17 1009.34 1009.54 1009.77 1009.99 1010.18 1010.33 1010.43 1010.49 1010.51 1010.52 1010.54 1010.59 1010.68 1010.82 1010.99 1011.19 1011.40 1011.61 1011.80 1011.96 1012.10 1012.22 1012.31
1011.52 1011.40 1011.28 1011.19 1011.14 1011.11 1011.07 1010.99 1010.85 1010.65 1010.40 1010.13 1009.89 1009.68 1009.54 1009.46 1009.42 1009.40 1009.38 1009.34 1009.27 1009.20 1009.13 1009.09 1009.11 1009.19 1009.34 1009.52 1009.72 1009.90 1010.03 1010.10 1010.11 1010.08 1010.03 1010.00 1010.02 1010.11 1010.28 1010.51 1010.80 1011.10 1011.39 1011.65 1011.86 1012.03 1012.15 1012.23 1012.30
1011.75 1011.69 1011.69 1011.76 1011.90 1012.06 1012.20 1012.25 1012.20 1012.04 1011.78 1011.47 1011.16 1010.87 1010.63 1010.45 1010.32 1010.20 1010.07 1009.92 1009.75 1009.57 1009.41 1009.30 1009.27 1009.31 1009.42 1009.58 1009.74 1009.86 1009.93 1009.91 1009.83 1009.72 1009.61 1009.55 1009.57 1009.71 1009.96 1010.30 1010.69 1011.09 1011.45 1011.76 1011.99 1012.14 1012.23 1012.29 1012.32
1011.77 1011.79 1011.92 1012.17 1012.49 1012.83 1013.11 1013.27 1013.29 1013.14 1012.87 1012.53 1012.16 1011.82 1011.53 1011.29 1011.10 1010.92 1010.73 1010.51 1010.27 1010.02 1009.79 1009.62 1009.53 1009.53 1009.60 1009.71 1009.82 1009.88 1009.88 1009.78 1009.62 1009.44 1009.28 1009.20 1009.24 1009.42 1009.74 1010.16 1010.64 1011.11 1011.52 1011.86 1012.09 1012.22 1012.29 1012.31 1012.33
1011.57 1011.70 1011.98 1012.39 1012.88 1013.37 1013.76 1014.00 1014.04 1013.90 1013.61 1013.23 1012.83 1012.46 1012.15 1011.91 1011.71 1011.53 1011.33 1011.09 1010.82 1010.53 1010.25 1010.03 1009.89 1009.84 1009.86 1009.92 1009.97 1009.98 1009.90 1009.74 1009.52 1009.28 1009.08 1008.99 1009.04 1009.25 1009.61 1010.08 1010.60 1011.10 1011.54 1011.87 1012.09 1012.20 1012.24 1012.25 1012.27
1011.21 1011.46 1011.91 1012.48 1013.12 1013.73 1014.19 1014.47 1014.51 1014.34 1014.01 1013.59 1013.17 1012.80 1012.52 1012.31 1012.16 1012.02 1011.86 1011.64 1011.37 1011.07 1010.77 1010.51 1010.32 1010.22 1010.18 1010.18 1010.18 1010.13 1010.00 1009.79 1009.52 1009.25 1009.03 1008.93 1008.97 1009.18 1009.55 1010.03 1010.54 1011.04 1011.46 1011.76 1011.95 1012.03 1012.06 1012.06 1012.10
1010.83 1011.24 1011.84 1012.58 1013.34 1014.02 1014.53 1014.80 1014.80 1014.57 1014.19 1013.74 1013.30 1012.94 1012.70 1012.55 1012.48 1012.41 1012.32 1012.15 1011.91 1011.62 1011.30 1011.00 1010.76 1010.60 1010.51 1010.45 1010.40 1010.30 1010.14 1009.91 1009.63 1009.35 1009.12 1009.01 1009.04 1009.23 1009.56 1009.99 1010.46 1010.90 1011.26 1011.51 1011.66 1011.71 1011.72 1011.74 1011.80
1010.58 1011.15 1011.92 1012.79 1013.66 1014.39 1014.90 1015.12 1015.06 1014.76 1014.31 1013.80 1013.35 1013.00 1012.80 1012.72 1012.72 1012.74 1012.71 1012.61 1012.40 1012.11 1011.78 1011.44 1011.15 1010.93 1010.78 1010.68 1010.59 1010.47 1010.31 1010.08 1009.82 1009.55 1009.33 1009.21 1009.21 1009.36 1009.63 1009.99 1010.37 1010.72 1010.99 1011.17 1011.25 1011.27 1011.26 1011.29 1011.39
1010.60 1011.33 1012.24 1013.23 1014.16 1014.91 1015.39 1015.55 1015.40 1015.00 1014.47 1013.91 1013.42 1013.08 1012.90 1012.86 1012.93 1013.01 1013.04 1012.97 1012.79 1012.50 1012.14 1011.76 1011.42 1011.15 1010.95 1010.81 1010.70 1010.59 1010.45 1010.26 1010.04 1009.81 1009.61 1009.49 1009.47 1009.56 1009.75 1010.01 1010.28 1010.51 1010.68 1010.77 1010.79 1010.76 1010.74 1010.77 1010.89
1010.96 1011.82 1012.85 1013.91 1014.87 1015.60 1016.03 1016.10 1015.86 1015.36 1014.74 1014.12 1013.59 1013.22 1013.05 1013.03 1013.12 1013.23 1013.28 1013.22 1013.03 1012.73 1012.34 1011.92 1011.53 1011.21 1010.98 1010.82 1010.71 1010.62 1010.53 1010.40 1010.24 1010.06 1009.91 1009.80 1009.76 1009.80 1009.91 1010.06 1010.21 1010.33 1010.39 1010.39 1010.34 1010.27 1010.22 1010.24 1010.37
1011.64 1012.60 1013.69 1014.78 1015.72 1016.41 1016.76 1016.74 1016.41 1015.82 1015.13 1014.44 1013.86 1013.46 1013.26 1013.22 1013.29 1013.38 1013.41 1013.33 1013.12 1012.78 1012.35 1011.89 1011.46 1011.11 1010.85 1010.68 1010.59 1010.54 1010.50 1010.44 1010.36 1010.25 1010.15 1010.06 1010.02 1010.01 1010.05 1010.10 1010.15 1010.16 1010.13 1010.05 1009.94 1009.83 1009.75 1009.76 1009.86
1012.56 1013.57 1014.66 1015.72 1016.61 1017.22 1017.48 1017.38 1016.96 1016.31 1015.56 1014.82 1014.20 1013.76 1013.50 1013.41 1013.42 1013.46 1013.43 1013.30 1013.03 1012.65 1012.18 1011.69 1011.23 1010.86 1010.58 1010.42 1010.34 1010.33 1010.34 1010.35 1010.34 1010.30 1010.25 1010.20 1010.15 1010.12 1010.11 1010.10 1010.07 1010.00 1009.90 1009.77 1009.61 1009.47 1009.37 1009.34 1009.41
1013.61 1014.59 1015.64 1016.61 1017.40 1017.91 1018.07 1017.90 1017.42 1016.74 1015.96 1015.20 1014.54 1014.06 1013.74 1013.58 1013.51 1013.45 1013.35 1013.14 1012.81 1012.38 1011.88 1011.37 1010.89 1010.49 1010.21 1010.05 1009.99 1009.99 1010.04 1010.09 1010.13 1010.15 1010.14 1010.12 1010.09 1010.06 1010.02 1009.97 1009.91 1009.81 1009.67 1009.51 1009.34 1009.18 1009.06 1009.01 1009.04
1014.65 1015.55 1016.48 1017.32 1017.97 1018.36 1018.43 1018.20 1017.70 1017.01 1016.24 1015.49 1014.83 1014.31 1013.95 1013.71 1013.54 1013.38 1013.18 1012.90 1012.51 1012.04 1011.51 1010.98 1010.49 1010.08 1009.79 1009.61 1009.53 1009.53 1009.58 1009.64 1009.70 1009.75 1009.77 1009.77 1009.76 1009.75 1009.72 1009.67 1009.60 1009.50 1009.38 1009.23 1009.07 1008.92 1008.80 1008.73 1008.73
1015.57 1016.35 1017.11 1017.78 1018.28 1018.54 1018.52 1018.25 1017.75 1017.10 1016.38 1015.67 1015.03 1014.51 1014.10 1013.79 1013.53 1013.28 1012.99 1012.63 1012.19 1011.68 1011.13 1010.59 1010.09 1009.68 1009.36 1009.14 1009.02 1008.98 1008.98 1009.01 1009.05 1009.09 1009.12 1009.14 1009.15 1009.16 1009.16 1009.14 1009.11 1009.05 1008.97 1008.86 1008.75 1008.63 1008.53 1008.46 1008.44
Thickness
5828 5825 5822 5811 5792 5780 5783 5803 5819 5825 5831 5841 5844 5839 5831 5824 5816 5815 5838 5846 5843 5835 5828 5822 5817 5811 5806 5802 5797 5794 5791 5788 5786 5783 5781 5779 5777 5775 5773 5771 5769 5768 5767 5765 5764 5763 5761 5760 5759
5828 5824 5815 5801 5785 5775 5790 5814 5821 5829 5839 5847 5846 5841 5833 5830 5834 5833 5837 5841 5840 5834 5827 5821 5816 5811 5806 5801 5796 5792 5789 5786 5783 5781 5779 5777 5775 5773 5771 5769 5768 5766 5765 5764 5762 5761 5760 5759 5757
5827 5824 5806 5793 5785 5783 5799 5822 5828 5838 5847 5846 5840 5840 5834 5831 5835 5835 5839 5840 5836 5830 5825 5820 5815 5809 5804 5800 5795 5791 5787 5784 5781 5779 5776 5775 5773 5771 5769 5767 5765 5764 5763 5762 5761 5759 5758 5757 5755
5823 5812 5801 5787 5788 5803 5815 5829 5835 5836 5843 5846 5840 5832 5837 5844 5842 5842 5841 5838 5832 5827 5822 5818 5813 5808 5803 5798 5793 5789 5786 5782 5779 5777 5775 5772 5771 5769 5767 5765 5764 5762 5761 5760 5759 5758 5756 5755 5754
5818 5803 5789 5779 5790 5810 5827 5836 5838 5834 5836 5840 5837 5827 5830 5841 5847 5844 5840 5835 5829 5824 5820 5816 5811 5806 5801 5796 5791 5788 5784 5781 5778 5775 5773 5770 5768 5767 5765 5763 5761 5760 5759 5757 5756 5755 5754 5753 5752
5803 5794 5778 5775 5792 5815 5829 5838 5838 5835 5835 5838 5835 5826 5827 5838 5840 5839 5838 5833 5829 5823 5818 5814 5809 5804 5799 5794 5790 5786 5783 5780 5776 5773 5771 5768 5766 5764 5762 5760 5759 5757 5756 5755 5754 5752 5752 5751 5750
5797 5786 5780 5785 5791 5805 5827 5839 5835 5833 5833 5837 5839 5825 5826 5833 5837 5838 5835 5830 5825 5820 5815 5811 5807 5802 5797 5793 5788 5784 5781 5777 5774 5771 5768 5766 5764 5762 5760 5758 5756 5755 5753 5752 5751 5750 5749 5748 5747
5805 5788 5784 5783 5789 5801 5827 5835 5839 5836 5835 5847 5844 5826 5823 5833 5836 5833 5828 5824 5820 5816 5812 5809 5804 5800 5795 5791 5786 5782 5779 5776 5772 5770 5767 5764 5761 5759 5757 5755 5754 5752 5751 5750 5748 5747 5747 5746 5745
5807 5779 5772 5785 5792 5804 5824 5827 5835 5846 5841 5842 5845 5841 5841 5841 5834 5826 5820 5816 5813 5811 5809 5805 5801 5797 5792 5788 5785 5781 5776 5773 5770 5767 5765 5762 5759 5757 5755 5753 5752 5750 5749 5748 5747 5746 5745 5744 5744
5793 5771 5782 5799 5807 5810 5819 5822 5828 5832 5830 5832 5836 5839 5841 5836 5828 5821 5816 5811 5808 5805 5804 5802 5798 5793 5789 5785 5781 5777 5774 5770 5767 5765 5762 5759 5757 5754 5752 5750 5749 5748 5748 5747 5746 5745 5744 5743 5742
5792 5785 5797 5807 5814 5815 5815 5821 5828 5823 5818 5827 5830 5831 5831 5828 5823 5818 5814 5811 5807 5803 5799 5797 5793 5789 5784 5780 5777 5773 5770 5767 5764 5761 5758 5755 5753 5751 5749 5748 5747 5746 5746 5745 5745 5744 5743 5742 5741
5792 5797 5803 5809 5817 5814 5814 5819 5819 5819 5824 5837 5838 5835 5829 5823 5819 5816 5811 5807 5803 5798 5794 5791 5787 5782 5777 5774 5770 5768 5766 5763 5760 5758 5755 5752 5750 5748 5747 5746 5745 5744 5743 5743 5743 5742 5742 5741 5740
5789 5795 5804 5810 5809 5810 5812 5811 5813 5816 5829 5833 5833 5828 5823 5819 5815 5811 5806 5802 5797 5792 5789 5785 5781 5776 5771 5765 5762 5762 5760 5757 5754 5752 5751 5749 5747 5746 5744 5743 5742 5742 5741 5740 5740 5740 5739 5739 5738
5790 5793 5796 5801 5805 5809 5806 5805 5804 5809 5820 5821 5819 5814 5812 5808 5805 5802 5799 5795 5791 5787 5784 5781 5776 5770 5766 5761 5756 5755 5754 5751 5748 5747 5745 5745 5744 5744 5741 5740 5739 5739 5738 5737 5737 5736 5735 5735 5735
5789 5783 5787 5796 5800 5804 5802 5787 5787 5799 5807 5805 5803 5801 5800 5798 5795 5792 5791 5787 5784 5780 5777 5773 5769 5764 5760 5756 5751 5748 5746 5746 5745 5742 5740 5739 5740 5739 5738 5736 5735 5735 5735 5734 5734 5733 5731 5730 5730
5779 5769 5764 5781 5788 5794 5787 5761 5772 5788 5792 5788 5788 5788 5785 5782 5782 5782 5783 5780 5777 5773 5769 5765 5764 5758 5755 5751 5747 5744 5740 5741 5741 5737 5735 5735 5736 5735 5734 5733 5732 5732 5730 5729 5728 5727 5726 5725 5724
5755 5747 5753 5765 5779 5780 5769 5750 5761 5775 5777 5774 5775 5775 5773 5771 5771 5772 5773 5772 5769 5766 5762 5759 5756 5752 5749 5746 5741 5738 5736 5733 5734 5733 5731 5731 5731 5730 5729 5729 5729 5728 5726 5724 5724 5722 5721 5720 5719
5746 5747 5749 5752 5764 5763 5751 5743 5752 5761 5764 5761 5762 5762 5761 5760 5758 5760 5762 5762 5761 5757 5753 5750 5748 5744 5742 5738 5733 5729 5728 5726 5726 5726 5724 5724 5725 5725 5725 5724 5723 5722 5720 5719 5718 5717 5716 5716 5715
5756 5749 5744 5753 5763 5750 5739 5736 5741 5748 5751 5750 5749 5750 5749 5748 5749 5750 5750 5751 5750 5746 5743 5740 5736 5734 5732 5727 5721 5717 5717 5719 5719 5719 5718 5719 5719 5720 5719 5718 5716 5716 5715 5713 5712 5711 5711 5710 5710
5752 5744 5744 5751 5758 5745 5732 5730 5735 5739 5739 5740 5740 5739 5739 5738 5739 5740 5739 5738 5736 5734 5731 5729 5725 5724 5722 5718 5715 5714 5715 5713 5712 5713 5713 5713 5714 5713 5713 5712 5710 5710 5708 5708 5707 5705 5704 5704 5705
5753 5747 5748 5747 5748 5741 5732 5722 5724 5730 5733 5734 5734 5733 5732 5730 5728 5728 5726 5724 5724 5723 5721 5719 5716 5714 5712 5711 5711 5709 5707 5706 5706 5705 5705 5706 5707 5706 5707 5706 5706 5705 5704 5703 5702 5701 5699 5698 5698
5749 5763 5759 5750 5734 5720 5726 5705 5714 5717 5719 5722 5722 5722 5721 5719 5718 5716 5715 5713 5713 5712 5711 5710 5709 5706 5704 5703 5702 5700 5696 5694 5695 5696 5697 5698 5698 5698 5699 5699 5699 5699 5699 5697 5697 5698 5695 5694 5692
5759 5760 5752 5742 5729 5715 5712 5702 5702 5709 5708 5710 5712 5712 5711 5710 5708 5706 5705 5703 5702 5703 5702 5701 5699 5698 5697 5696 5694 5690 5688 5687 5687 5688 5688 5689 5689 5689 5690 5691 5691 5692 5692 5692 5691 5692 5690 5690 5688
5764 5750 5737 5723 5713 5700 5702 5698 5696 5699 5703 5704 5705 5705 5703 5701 5700 5697 5696 5694 5693 5693 5692 5691 5689 5687 5686 5685 5684 5681 5678 5677 5677 5676 5676 5678 5678 5680 5681 5681 5682 5683 5684 5685 5685 5685 5684 5684 5684
5752 5728 5703 5699 5688 5690 5700 5694 5693 5703 5706 5704 5701 5699 5698 5695 5691 5689 5687 5686 5684 5683 5681 5680 5678 5676 5675 5673 5671 5670 5668 5666 5664 5664 5664 5665 5666 5667 5669 5670 5670 5672 5674 5675 5676 5677 5678 5678 5678
5743 5728 5700 5688 5682 5686 5693 5688 5694 5704 5703 5702 5698 5695 5692 5688 5684 5682 5680 5677 5675 5674 5672 5669 5666 5664 5663 5660 5658 5656 5654 5652 5651 5651 5651 5651 5651 5653 5655 5656 5658 5660 5662 5664 5666 5667 5669 5670 5670
5738 5719 5717 5693 5688 5679 5683 5689 5696 5699 5695 5692 5689 5686 5682 5680 5678 5674 5672 5669 5666 5663 5661 5658 5654 5652 5650 5648 5645 5642 5640 5638 5637 5637 5636 5636 5636 5638 5640 5642 5644 5646 5649 5651 5654 5656 5658 5659 5661
5737 5720 5702 5688 5676 5671 5680 5679 5676 5683 5682 5682 5680 5677 5675 5674 5671 5667 5664 5660 5657 5653 5650 5646 5643 5640 5637 5635 5631 5630 5627 5624 5622 5620 5619 5620 5620 5621 5623 5625 5628 5630 5633 5636 5639 5642 5645 5647 5650
5723 5713 5694 5679 5677 5667 5662 5667 5682 5677 5677 5674 5673 5671 5667 5664 5661 5658 5654 5650 5646 5641 5637 5633 5630 5626 5624 5621 5618 5615 5612 5610 5607 5604 5604 5603 5603 5604 5605 5607 5610 5613 5617 5620 5623 5627 5630 5634 5637
5719 5707 5695 5682 5673 5664 5656 5659 5681 5675 5673 5669 5665 5663 5659 5655 5651 5647 5642 5637 5632 5628 5624 5619 5616 5612 5610 5607 5603 5600 5597 5594 5591 5589 5588 5587 5587 5588 5588 5590 5592 5595 5599 5603 5606 5611 5616 5619 5623